TimeEST,TemperatureF,Dew PointF,Humidity,Sea Level PressureIn,VisibilityMPH,Wind Direction,Wind SpeedMPH,Gust SpeedMPH,PrecipitationIn,Events,Conditions,WindDirDegrees,DateUTC
12:54 AM,37.9,27.0,65,30.03,10.0,SW,3.5,-,N/A,,Clear,220,2013-01-24 05:54:00
1:54 AM,39.0,28.0,65,30.01,10.0,SSW,8.1,-,N/A,,Clear,210,2013-01-24 06:54:00
2:54 AM,39.0,28.0,65,30.00,10.0,SSW,5.8,-,N/A,,Clear,210,2013-01-24 07:54:00
3:54 AM,39.0,28.9,67,29.99,10.0,SW,3.5,-,N/A,,Clear,220,2013-01-24 08:54:00
4:54 AM,37.9,28.9,70,29.99,10.0,Variable,3.5,-,N/A,,Clear,0,2013-01-24 09:54:00
5:54 AM,39.0,30.0,70,30.01,10.0,WSW,3.5,-,N/A,,Clear,240,2013-01-24 10:54:00
6:54 AM,34.0,28.9,82,30.04,10.0,WSW,3.5,-,N/A,,Clear,240,2013-01-24 11:54:00
7:54 AM,37.0,30.9,79,30.08,10.0,Calm,Calm,-,N/A,,Clear,0,2013-01-24 12:54:00
8:54 AM,46.9,30.0,52,30.12,10.0,Variable,5.8,-,N/A,,Clear,0,2013-01-24 13:54:00
9:54 AM,48.0,23.0,37,30.17,10.0,Variable,5.8,-,N/A,,Clear,0,2013-01-24 14:54:00
10:54 AM,50.0,9.0,19,30.19,10.0,North,9.2,19.6,N/A,,Clear,360,2013-01-24 15:54:00
11:54 AM,50.0,10.0,20,30.21,10.0,NNE,11.5,-,N/A,,Clear,20,2013-01-24 16:54:00
12:54 PM,48.9,18.0,29,30.25,10.0,NE,15.0,21.9,N/A,,Clear,40,2013-01-24 17:54:00
1:54 PM,46.9,14.0,27,30.27,10.0,NNE,13.8,24.2,N/A,,Clear,30,2013-01-24 18:54:00
2:54 PM,44.1,12.0,27,30.29,10.0,ENE,20.7,28.8,N/A,,Clear,60,2013-01-24 19:54:00
3:54 PM,41.0,10.0,28,30.33,10.0,NNE,16.1,20.7,N/A,,Clear,30,2013-01-24 20:54:00
4:54 PM,37.9,8.1,29,30.37,10.0,NE,11.5,-,N/A,,Clear,50,2013-01-24 21:54:00
5:54 PM,34.0,7.0,32,30.40,10.0,NE,11.5,-,N/A,,Clear,50,2013-01-24 22:54:00
6:54 PM,32.0,3.9,31,30.43,10.0,NE,11.5,19.6,N/A,,Clear,50,2013-01-24 23:54:00
7:54 PM,30.0,3.9,33,30.45,10.0,ENE,9.2,-,N/A,,Clear,60,2013-01-25 00:54:00
8:54 PM,28.9,3.9,35,30.46,10.0,NE,11.5,-,N/A,,Clear,40,2013-01-25 01:54:00
9:54 PM,28.0,5.0,38,30.48,10.0,ENE,6.9,-,N/A,,Clear,60,2013-01-25 02:54:00
10:54 PM,27.0,6.1,41,30.49,10.0,ENE,4.6,-,N/A,,Clear,70,2013-01-25 03:54:00
11:54 PM,26.1,6.1,43,30.50,10.0,ENE,4.6,-,N/A,,Clear,60,2013-01-25 04:54:00